| time (UTC) | temp C | wind direction | speed KPH | gust KPH | rain 1hr cm | rain 24hr cm | rain mn cm | humidity % | barometer mb |
| 20260505100522 | 16 | 227 | 0.0 | 0.0 | 0.00 | 0.03 | 0.00 | 51 | 1008.8 |
| 20260505100024 | 16 | 220 | 0.0 | 0.0 | 0.00 | 0.03 | 0.00 | 51 | 1008.7 |
| 20260505095523 | 16 | 220 | 0.0 | 0.0 | 0.00 | 0.03 | 0.00 | 51 | 1008.4 |
| 20260505095020 | 16 | 215 | 0.0 | 0.0 | 0.00 | 0.03 | 0.00 | 51 | 1008.5 |
| 20260505094520 | 16 | 193 | 0.0 | 0.0 | 0.00 | 0.03 | 0.00 | 51 | 1008.5 |
| 20260505094021 | 16 | 211 | 0.0 | 0.0 | 0.00 | 0.03 | 0.00 | 51 | 1008.4 |
| 20260505093519 | 16 | 202 | 0.0 | 0.0 | 0.00 | 0.03 | 0.00 | 51 | 1008.4 |
| 20260505093019 | 16 | 208 | 0.0 | 0.0 | 0.00 | 0.03 | 0.00 | 51 | 1008.3 |
| 20260505092519 | 16 | 200 | 0.0 | 0.0 | 0.00 | 0.03 | 0.00 | 50 | 1008.3 |
| 20260505092017 | 16 | 215 | 0.0 | 0.0 | 0.00 | 0.03 | 0.00 | 50 | 1008.3 |
| 20260505091516 | 16 | 218 | 0.0 | 0.0 | 0.00 | 0.03 | 0.00 | 50 | 1008.3 |
| 20260505091014 | 16 | 231 | 0.0 | 0.0 | 0.00 | 0.03 | 0.00 | 49 | 1008.3 |
| 20260505090514 | 16 | 214 | 0.0 | 0.0 | 0.00 | 0.03 | 0.00 | 49 | 1008.4 |
| 20260505090013 | 17 | 198 | 0.0 | 0.0 | 0.00 | 0.03 | 0.00 | 49 | 1008.3 |
| 20260505085513 | 17 | 193 | 0.0 | 0.0 | 0.00 | 0.03 | 0.00 | 49 | 1008.3 |
| 20260505085013 | 17 | 223 | 0.0 | 0.0 | 0.00 | 0.03 | 0.00 | 49 | 1008.2 |
| 20260505084512 | 17 | 223 | 0.0 | 0.0 | 0.00 | 0.03 | 0.00 | 48 | 1008.1 |
| 20260505084011 | 17 | 231 | 0.0 | 0.0 | 0.00 | 0.03 | 0.00 | 48 | 1008.2 |
| 20260505083514 | 17 | 219 | 0.0 | 0.0 | 0.00 | 0.03 | 0.00 | 48 | 1008.1 |
| 20260505083011 | 17 | 213 | 0.0 | 0.0 | 0.00 | 0.03 | 0.00 | 48 | 1008.1 |
| 20260505082512 | 17 | 221 | 0.0 | 0.0 | 0.00 | 0.03 | 0.00 | 47 | 1008.1 |
| 20260505082010 | 17 | 217 | 0.0 | 0.0 | 0.00 | 0.03 | 0.00 | 47 | 1008.1 |
| 20260505081510 | 17 | 220 | 0.0 | 0.0 | 0.00 | 0.03 | 0.00 | 46 | 1008.2 |
| 20260505081007 | 17 | 205 | 0.0 | 0.0 | 0.00 | 0.03 | 0.00 | 46 | 1008.3 |
| 20260505080510 | 17 | 219 | 0.0 | 0.0 | 0.00 | 0.03 | 0.00 | 45 | 1008.3 |
| 20260505080006 | 18 | 227 | 0.0 | 0.0 | 0.00 | 0.03 | 0.00 | 45 | 1008.3 |
| 20260505075504 | 18 | 231 | 0.0 | 0.0 | 0.00 | 0.03 | 0.00 | 45 | 1008.2 |
| 20260505075006 | 18 | 229 | 0.0 | 0.0 | 0.00 | 0.03 | 0.00 | 44 | 1008.2 |
| 20260505074504 | 18 | 223 | 0.0 | 0.0 | 0.00 | 0.03 | 0.00 | 44 | 1008.2 |
| 20260505074003 | 18 | 192 | 0.0 | 0.0 | 0.00 | 0.03 | 0.00 | 44 | 1008.1 |
| 20260505073505 | 18 | 200 | 0.0 | 0.0 | 0.00 | 0.03 | 0.00 | 44 | 1008.0 |
| 20260505073003 | 18 | 219 | 0.0 | 0.0 | 0.00 | 0.03 | 0.00 | 44 | 1007.9 |
| 20260505072501 | 18 | 199 | 0.0 | 0.0 | 0.00 | 0.03 | 0.00 | 44 | 1007.9 |
| 20260505072001 | 18 | 219 | 0.0 | 0.0 | 0.00 | 0.03 | 0.00 | 43 | 1008.0 |
| 20260505071501 | 18 | 229 | 0.0 | 11.3 | 0.00 | 0.03 | 0.00 | 43 | 1007.9 |
| 20260505071100 | 18 | 222 | 0.0 | 19.3 | 0.00 | 0.03 | 0.00 | 43 | 1008.0 |
| 20260505070600 | 18 | 236 | 9.7 | 27.4 | 0.00 | 0.03 | 0.00 | 43 | 1007.9 |
| 20260505070107 | 18 | 221 | 14.5 | 27.4 | 0.00 | 0.03 | 0.00 | 43 | 1007.7 |
| 20260505065559 | 18 | 236 | 8.0 | 27.4 | 0.00 | 0.43 | 0.00 | 43 | 1007.6 |
| 20260505065058 | 18 | 218 | 8.0 | 27.4 | 0.00 | 0.43 | 0.00 | 43 | 1007.7 |
| 20260505064644 | 18 | 243 | 9.7 | 16.1 | 0.00 | 0.43 | 0.00 | 43 | 1007.8 |
| 20260505064159 | 18 | 231 | 6.4 | 11.3 | 0.00 | 0.43 | 0.00 | 43 | 1007.8 |
| 20260505063556 | 18 | 219 | 0.0 | 0.0 | 0.00 | 0.43 | 0.00 | 43 | 1007.7 |
| 20260505063100 | 18 | 207 | 0.0 | 0.0 | 0.00 | 0.43 | 0.00 | 43 | 1007.7 |
| 20260505062556 | 18 | 217 | 0.0 | 0.0 | 0.00 | 0.43 | 0.00 | 43 | 1007.7 |
| 20260505062056 | 18 | 197 | 0.0 | 0.0 | 0.00 | 0.43 | 0.00 | 43 | 1007.6 |
| 20260505061555 | 18 | 200 | 0.0 | 0.0 | 0.00 | 0.43 | 0.00 | 44 | 1007.6 |
| 20260505061055 | 18 | 233 | 0.0 | 0.0 | 0.00 | 0.43 | 0.00 | 43 | 1007.6 |
| 20260505060557 | 18 | 198 | 0.0 | 0.0 | 0.00 | 0.43 | 0.00 | 44 | 1007.5 |
| 20260505060054 | 18 | 198 | 0.0 | 0.0 | 0.00 | 0.43 | 0.00 | 44 | 1007.4 |
| 20260505055553 | 18 | 206 | 0.0 | 0.0 | 0.00 | 0.43 | 0.00 | 44 | 1007.6 |
| 20260505055053 | 18 | 195 | 0.0 | 0.0 | 0.00 | 0.43 | 0.00 | 44 | 1007.6 |
| 20260505054553 | 18 | 204 | 0.0 | 0.0 | 0.00 | 0.43 | 0.00 | 44 | 1007.7 |
| 20260505054152 | 18 | 208 | 0.0 | 0.0 | 0.00 | 0.43 | 0.00 | 44 | 1007.8 |
| 20260505053552 | 18 | 194 | 0.0 | 0.0 | 0.00 | 0.43 | 0.00 | 44 | 1007.8 |
| 20260505053051 | 18 | 200 | 0.0 | 1.6 | 0.00 | 0.43 | 0.00 | 44 | 1007.8 |
| 20260505052551 | 18 | 199 | 0.0 | 0.0 | 0.00 | 0.43 | 0.00 | 44 | 1007.8 |
| 20260505052051 | 18 | 206 | 0.0 | 0.0 | 0.00 | 0.43 | 0.00 | 43 | 1007.8 |
| 20260505051550 | 18 | 204 | 0.0 | 0.0 | 0.00 | 0.43 | 0.00 | 43 | 1007.8 |
| 20260505051051 | 18 | 198 | 0.0 | 0.0 | 0.00 | 0.43 | 0.00 | 43 | 1007.9 |
| 20260505050548 | 18 | 217 | 0.0 | 0.0 | 0.00 | 0.43 | 0.00 | 43 | 1008.0 |
| 20260505041543 | 20 | 181 | 0.0 | 0.0 | 0.00 | 0.43 | 0.00 | 40 | 1008.0 |
| 20260505041143 | 20 | 192 | 0.0 | 0.0 | 0.00 | 0.43 | 0.00 | 40 | 1008.0 |
| 20260505040543 | 20 | 195 | 0.0 | 0.0 | 0.00 | 0.43 | 0.00 | 40 | 1008.0 |
| 20260505040042 | 20 | 210 | 0.0 | 0.0 | 0.00 | 0.43 | 0.00 | 39 | 1008.0 |
| 20260505035540 | 20 | 211 | 0.0 | 0.0 | 0.00 | 0.43 | 0.43 | 39 | 1008.0 |
| 20260505035040 | 20 | 219 | 0.0 | 0.0 | 0.00 | 0.43 | 0.43 | 39 | 1008.0 |
| 20260505034556 | 20 | 228 | 0.0 | 0.0 | 0.00 | 0.43 | 0.43 | 39 | 1008.0 |
| 20260505034040 | 20 | 227 | 0.0 | 0.0 | 0.00 | 0.43 | 0.43 | 38 | 1007.9 |
| 20260505033540 | 20 | 257 | 0.0 | 0.0 | 0.00 | 0.43 | 0.43 | 38 | 1008.0 |
| 20260505033042 | 20 | 233 | 0.0 | 0.0 | 0.00 | 0.43 | 0.43 | 38 | 1007.9 |
| 20260505032540 | 20 | 221 | 0.0 | 0.0 | 0.00 | 0.43 | 0.43 | 38 | 1008.0 |
| 20260505032039 | 20 | 227 | 0.0 | 0.0 | 0.00 | 0.43 | 0.43 | 37 | 1007.9 |
| 20260505031539 | 21 | 228 | 0.0 | 0.0 | 0.00 | 0.43 | 0.43 | 37 | 1007.9 |
| 20260505031038 | 21 | 199 | 0.0 | 0.0 | 0.00 | 0.43 | 0.43 | 37 | 1007.8 |
| 20260505030541 | 21 | 227 | 0.0 | 0.0 | 0.00 | 0.43 | 0.43 | 37 | 1007.7 |
| 20260505030046 | 21 | 210 | 0.0 | 0.0 | 0.00 | 0.43 | 0.43 | 37 | 1007.6 |
| 20260505025538 | 21 | 215 | 0.0 | 0.0 | 0.00 | 0.43 | 0.43 | 37 | 1007.4 |
| 20260505025038 | 21 | 221 | 0.0 | 0.0 | 0.00 | 0.43 | 0.43 | 37 | 1007.4 |
| 20260505024537 | 21 | 236 | 0.0 | 0.0 | 0.00 | 0.43 | 0.43 | 37 | 1007.3 |
| 20260505024037 | 21 | 242 | 0.0 | 0.0 | 0.00 | 0.43 | 0.43 | 38 | 1007.2 |
| 20260505023537 | 21 | 223 | 0.0 | 0.0 | 0.00 | 0.43 | 0.43 | 37 | 1007.2 |
| 20260505023043 | 21 | 194 | 0.0 | 0.0 | 0.00 | 0.43 | 0.43 | 37 | 1007.0 |
| 20260505022537 | 21 | 233 | 0.0 | 9.7 | 0.00 | 0.43 | 0.43 | 37 | 1007.0 |
| 20260505022037 | 21 | 219 | 0.0 | 9.7 | 0.00 | 0.43 | 0.43 | 37 | 1006.9 |
| 20260505021537 | 21 | 219 | 0.0 | 0.0 | 0.00 | 0.43 | 0.43 | 37 | 1006.9 |
| 20260505021035 | 21 | 213 | 0.0 | 0.0 | 0.00 | 0.43 | 0.43 | 37 | 1006.8 |
| 20260505020536 | 21 | 219 | 0.0 | 0.0 | 0.00 | 0.43 | 0.43 | 36 | 1006.7 |
| 20260505020047 | 21 | 232 | 0.0 | 0.0 | 0.00 | 0.43 | 0.43 | 36 | 1006.8 |
| 20260505015535 | 21 | 210 | 0.0 | 0.0 | 0.00 | 0.43 | 0.43 | 36 | 1006.6 |
| 20260505015035 | 21 | 195 | 0.0 | 0.0 | 0.00 | 0.43 | 0.43 | 36 | 1006.5 |
| 20260505014540 | 21 | 216 | 0.0 | 0.0 | 0.00 | 0.43 | 0.43 | 36 | 1006.3 |
| 20260505014036 | 21 | 216 | 0.0 | 9.7 | 0.00 | 0.43 | 0.43 | 36 | 1006.2 |
| 20260505013536 | 21 | 212 | 1.6 | 11.3 | 0.00 | 0.43 | 0.43 | 36 | 1006.0 |
| 20260505013039 | 21 | 216 | 6.4 | 11.3 | 0.00 | 0.43 | 0.43 | 36 | 1005.8 |
| 20260505012536 | 21 | 217 | 6.4 | 16.1 | 0.00 | 0.43 | 0.43 | 36 | 1005.8 |
| 20260505012038 | 22 | 195 | 6.4 | 16.1 | 0.00 | 0.43 | 0.43 | 35 | 1005.7 |
| 20260505011534 | 22 | 190 | 1.6 | 14.5 | 0.00 | 0.43 | 0.43 | 34 | 1005.6 |
| 20260505011033 | 22 | 196 | 8.0 | 25.7 | 0.00 | 0.43 | 0.43 | 34 | 1005.6 |
| 20260505010535 | 22 | 202 | 9.7 | 25.7 | 0.00 | 0.43 | 0.43 | 34 | 1005.7 |
| 20260505010033 | 22 | 188 | 12.9 | 24.1 | 0.00 | 0.43 | 0.43 | 33 | 1005.6 |
| 20260505005533 | 22 | 202 | 1.6 | 9.7 | 0.00 | 0.43 | 0.43 | 33 | 1005.6 |
| 20260505005033 | 22 | 173 | 0.0 | 1.6 | 0.00 | 0.43 | 0.43 | 33 | 1005.5 |
| 20260505004554 | 22 | 199 | 0.0 | 0.0 | 0.00 | 0.43 | 0.43 | 33 | 1005.6 |
| 20260505004031 | 22 | 202 | 0.0 | 0.0 | 0.00 | 0.43 | 0.43 | 33 | 1005.8 |
| 20260505003534 | 22 | 210 | 0.0 | 0.0 | 0.00 | 0.43 | 0.43 | 32 | 1005.8 |
| 20260505003031 | 22 | 214 | 0.0 | 0.0 | 0.00 | 0.43 | 0.43 | 32 | 1005.7 |
| 20260505002530 | 23 | 211 | 0.0 | 0.0 | 0.00 | 0.43 | 0.43 | 32 | 1005.7 |
| 20260505002030 | 23 | 213 | 0.0 | 0.0 | 0.00 | 0.43 | 0.43 | 32 | 1005.9 |
| 20260505001535 | 23 | 223 | 0.0 | 0.0 | 0.00 | 0.43 | 0.43 | 32 | 1005.9 |
| 20260505001032 | 23 | 191 | 0.0 | 0.0 | 0.00 | 0.43 | 0.43 | 33 | 1006.0 |
| 20260505000527 | 23 | 236 | 0.0 | 0.0 | 0.00 | 0.43 | 0.43 | 33 | 1006.0 |
| 20260505000026 | 23 | 226 | 0.0 | 0.0 | 0.00 | 0.43 | 0.43 | 33 | 1006.2 |
| 20260504235526 | 23 | 217 | 0.0 | 0.0 | 0.00 | 0.43 | 0.43 | 33 | 1006.3 |
| 20260504235026 | 23 | 214 | 0.0 | 0.0 | 0.00 | 0.43 | 0.43 | 33 | 1006.3 |
| 20260504234525 | 23 | 182 | 0.0 | 0.0 | 0.00 | 0.43 | 0.43 | 33 | 1006.4 |
| 20260504234024 | 23 | 229 | 0.0 | 0.0 | 0.00 | 0.43 | 0.43 | 33 | 1006.4 |
| 20260504233523 | 23 | 227 | 0.0 | 0.0 | 0.00 | 0.43 | 0.43 | 33 | 1006.6 |
| 20260504233024 | 23 | 213 | 0.0 | 0.0 | 0.00 | 0.43 | 0.43 | 33 | 1006.7 |
| 20260504232522 | 23 | 215 | 0.0 | 0.0 | 0.00 | 0.43 | 0.43 | 33 | 1006.7 |
| 20260504232020 | 23 | 216 | 0.0 | 0.0 | 0.00 | 0.43 | 0.43 | 32 | 1006.9 |
| 20260504231519 | 23 | 228 | 0.0 | 0.0 | 0.00 | 0.43 | 0.43 | 32 | 1007.1 |
| 20260504231019 | 23 | 232 | 0.0 | 0.0 | 0.00 | 0.43 | 0.43 | 32 | 1007.4 |
| 20260504230520 | 24 | 236 | 0.0 | 0.0 | 0.00 | 0.43 | 0.43 | 32 | 1007.5 |
| 20260504230016 | 24 | 224 | 0.0 | 0.0 | 0.00 | 0.43 | 0.43 | 32 | 1007.7 |
| 20260504225515 | 24 | 200 | 0.0 | 0.0 | 0.00 | 0.43 | 0.43 | 32 | 1007.8 |
| 20260504225014 | 24 | 237 | 0.0 | 0.0 | 0.00 | 0.43 | 0.43 | 32 | 1007.8 |
| 20260504224515 | 24 | 244 | 0.0 | 0.0 | 0.00 | 0.43 | 0.43 | 32 | 1007.9 |
| 20260504224014 | 24 | 232 | 0.0 | 0.0 | 0.00 | 0.43 | 0.43 | 32 | 1007.9 |
| 20260504223513 | 24 | 254 | 0.0 | 0.0 | 0.00 | 0.43 | 0.43 | 32 | 1007.9 |
| 20260504223013 | 24 | 225 | 0.0 | 0.0 | 0.00 | 0.43 | 0.43 | 30 | 1008.0 |
| 20260504222514 | 24 | 236 | 0.0 | 0.0 | 0.00 | 0.43 | 0.43 | 31 | 1008.0 |
| 20260504222013 | 24 | 221 | 0.0 | 0.0 | 0.00 | 0.43 | 0.43 | 29 | 1008.1 |
| 20260504221513 | 25 | 261 | 0.0 | 0.0 | 0.00 | 0.43 | 0.43 | 29 | 1008.1 |
| 20260504221012 | 25 | 243 | 0.0 | 0.0 | 0.00 | 0.43 | 0.43 | 29 | 1008.2 |
| 20260504220512 | 25 | 205 | 0.0 | 0.0 | 0.00 | 0.43 | 0.43 | 28 | 1008.1 |
| 20260504220011 | 25 | 207 | 0.0 | 0.0 | 0.00 | 0.43 | 0.43 | 29 | 1007.9 |
| 20260504215512 | 25 | 225 | 0.0 | 0.0 | 0.00 | 0.43 | 0.43 | 30 | 1008.0 |
| 20260504215015 | 25 | 252 | 0.0 | 0.0 | 0.00 | 0.43 | 0.43 | 29 | 1008.0 |
| 20260504214510 | 25 | 217 | 0.0 | 0.0 | 0.00 | 0.43 | 0.43 | 29 | 1008.0 |
| 20260504214009 | 25 | 238 | 0.0 | 0.0 | 0.00 | 0.43 | 0.43 | 29 | 1008.0 |
| 20260504213512 | 25 | 225 | 0.0 | 0.0 | 0.00 | 0.43 | 0.43 | 30 | 1008.0 |
| 20260504213024 | 25 | 227 | 0.0 | 0.0 | 0.00 | 0.43 | 0.43 | 29 | 1008.0 |
| 20260504212509 | 25 | 205 | 0.0 | 8.0 | 0.00 | 0.43 | 0.43 | 30 | 1008.0 |
| 20260504212008 | 25 | 243 | 1.6 | 11.3 | 0.00 | 0.43 | 0.43 | 32 | 1008.0 |
| 20260504211507 | 25 | 232 | 6.4 | 12.9 | 0.00 | 0.43 | 0.43 | 31 | 1008.1 |
| 20260504211006 | 25 | 221 | 8.0 | 14.5 | 0.00 | 0.43 | 0.43 | 30 | 1008.1 |
| 20260504210506 | 25 | 240 | 8.0 | 12.9 | 0.00 | 0.43 | 0.43 | 30 | 1008.1 |
| 20260504210005 | 25 | 234 | 8.0 | 30.6 | 0.00 | 0.43 | 0.43 | 30 | 1008.2 |
| 20260504205505 | 25 | 232 | 9.7 | 14.5 | 0.00 | 0.43 | 0.43 | 30 | 1008.2 |
| 20260504205005 | 24 | 229 | 9.7 | 27.4 | 0.00 | 0.43 | 0.43 | 31 | 1008.2 |
| 20260504204507 | 24 | 248 | 9.7 | 27.4 | 0.00 | 0.43 | 0.43 | 32 | 1008.1 |
| 20260504204004 | 25 | 236 | 12.9 | 27.4 | 0.00 | 0.43 | 0.43 | 34 | 1008.2 |
| 20260504203505 | 25 | 236 | 11.3 | 30.6 | 0.00 | 0.43 | 0.43 | 32 | 1008.2 |
| 20260504203004 | 25 | 217 | 11.3 | 32.2 | 0.00 | 0.43 | 0.43 | 34 | 1008.2 |
| 20260504202504 | 25 | 233 | 11.3 | 32.2 | 0.00 | 0.43 | 0.43 | 33 | 1008.3 |
| 20260504202004 | 25 | 236 | 17.7 | 29.0 | 0.00 | 0.43 | 0.43 | 32 | 1008.2 |
| 20260504201502 | 24 | 195 | 12.9 | 32.2 | 0.00 | 0.43 | 0.43 | 33 | 1008.1 |
| 20260504201002 | 24 | 227 | 0.0 | 0.0 | 0.00 | 0.43 | 0.43 | 35 | 1008.2 |
| 20260504200502 | 24 | 225 | 0.0 | 0.0 | 0.00 | 0.43 | 0.43 | 34 | 1008.4 |
| 20260504200004 | 25 | 186 | 0.0 | 0.0 | 0.00 | 0.43 | 0.43 | 35 | 1008.3 |
| 20260504195600 | 25 | 251 | 0.0 | 0.0 | 0.00 | 0.43 | 0.43 | 34 | 1008.4 |
| 20260504195059 | 25 | 238 | 0.0 | 0.0 | 0.00 | 0.43 | 0.43 | 35 | 1008.6 |
| 20260504194659 | 24 | 170 | 0.0 | 0.0 | 0.00 | 0.43 | 0.43 | 35 | 1008.6 |
| 20260504194057 | 23 | 227 | 0.0 | 0.0 | 0.00 | 0.43 | 0.43 | 36 | 1008.8 |
| 20260504193557 | 24 | 244 | 0.0 | 0.0 | 0.00 | 0.43 | 0.43 | 35 | 1008.9 |
| 20260504193057 | 24 | 236 | 0.0 | 0.0 | 0.00 | 0.43 | 0.43 | 35 | 1009.0 |
| 20260504192555 | 24 | 234 | 0.0 | 0.0 | 0.00 | 0.43 | 0.43 | 36 | 1009.1 |
| 20260504192055 | 24 | 245 | 0.0 | 0.0 | 0.00 | 0.43 | 0.43 | 37 | 1009.1 |
| 20260504191615 | 24 | 211 | 0.0 | 0.0 | 0.00 | 0.43 | 0.43 | 34 | 1009.3 |
| 20260504191052 | 24 | 249 | 0.0 | 0.0 | 0.00 | 0.43 | 0.43 | 36 | 1009.4 |
| 20260504190552 | 23 | 221 | 0.0 | 0.0 | 0.00 | 0.43 | 0.43 | 35 | 1009.4 |
| 20260504190051 | 23 | 246 | 0.0 | 0.0 | 0.00 | 0.43 | 0.43 | 35 | 1009.7 |
| 20260504185551 | 23 | 211 | 0.0 | 0.0 | 0.00 | 0.43 | 0.43 | 36 | 1009.6 |
| 20260504185050 | 23 | 226 | 0.0 | 0.0 | 0.00 | 0.43 | 0.43 | 35 | 1009.8 |
| 20260504184600 | 23 | 244 | 0.0 | 0.0 | 0.00 | 0.43 | 0.43 | 35 | 1009.8 |
| 20260504184052 | 23 | 250 | 0.0 | 0.0 | 0.00 | 0.43 | 0.43 | 37 | 1009.8 |
| 20260504183551 | 23 | 198 | 0.0 | 0.0 | 0.00 | 0.43 | 0.43 | 38 | 1009.8 |
| 20260504183049 | 23 | 207 | 0.0 | 9.7 | 0.00 | 0.43 | 0.43 | 36 | 1009.8 |
| 20260504182553 | 23 | 242 | 1.6 | 9.7 | 0.00 | 0.43 | 0.43 | 36 | 1009.7 |
| 20260504182048 | 23 | 208 | 0.0 | 0.0 | 0.00 | 0.43 | 0.43 | 35 | 1009.9 |
| 20260504181547 | 23 | 247 | 0.0 | 0.0 | 0.00 | 0.43 | 0.43 | 38 | 1009.8 |
| 20260504181046 | 23 | 219 | 0.0 | 0.0 | 0.00 | 0.43 | 0.43 | 37 | 1009.8 |
| 20260504180547 | 23 | 225 | 0.0 | 0.0 | 0.00 | 0.43 | 0.43 | 38 | 1009.9 |
| 20260504180045 | 23 | 225 | 0.0 | 0.0 | 0.00 | 0.43 | 0.43 | 38 | 1009.9 |
| 20260504175546 | 23 | 234 | 0.0 | 6.4 | 0.00 | 0.43 | 0.43 | 37 | 1009.9 |
| 20260504175044 | 23 | 204 | 0.0 | 6.4 | 0.00 | 0.43 | 0.43 | 38 | 1010.0 |
| 20260504174542 | 23 | 236 | 0.0 | 0.0 | 0.00 | 0.43 | 0.43 | 40 | 1009.9 |
| 20260504174042 | 22 | 204 | 0.0 | 0.0 | 0.00 | 0.43 | 0.43 | 36 | 1009.9 |
| 20260504173540 | 22 | 210 | 0.0 | 0.0 | 0.00 | 0.43 | 0.43 | 38 | 1010.0 |
| 20260504173039 | 22 | 192 | 0.0 | 0.0 | 0.00 | 0.43 | 0.43 | 41 | 1010.0 |
| 20260504172539 | 22 | 233 | 0.0 | 0.0 | 0.00 | 0.43 | 0.43 | 39 | 1010.1 |
| 20260504172042 | 22 | 202 | 0.0 | 0.0 | 0.00 | 0.43 | 0.43 | 40 | 1010.1 |
| 20260504171540 | 22 | 240 | 0.0 | 0.0 | 0.00 | 0.43 | 0.43 | 39 | 1010.2 |
| 20260504171037 | 21 | 198 | 0.0 | 24.1 | 0.00 | 0.43 | 0.43 | 41 | 1010.2 |
| 20260504170537 | 21 | 202 | 14.5 | 25.7 | 0.00 | 0.43 | 0.43 | 41 | 1010.2 |
| 20260504151018 | 18 | 211 | 0.0 | 0.0 | 0.00 | 0.41 | 0.41 | 46 | 1011.0 |
| 20260504150521 | 18 | 209 | 0.0 | 0.0 | 0.00 | 0.41 | 0.41 | 46 | 1011.0 |
| 20260504141008 | 16 | 188 | 8.0 | 16.1 | 0.00 | 0.41 | 0.41 | 50 | 1011.8 |
| 20260504140504 | 16 | 181 | 9.7 | 16.1 | 0.00 | 0.41 | 0.41 | 50 | 1011.8 |
| 20260504130551 | 13 | 174 | 0.0 | 0.0 | 0.00 | 0.41 | 0.41 | 54 | 1012.1 |
| 20260504110544 | 12 | 238 | 0.0 | 0.0 | 0.00 | 0.41 | 0.41 | 53 | 1012.9 |